Time,TemperatureF,DewpointF,PressureIn,WindDirection,WindDirectionDegrees,WindSpeedMPH,WindSpeedGustMPH,Humidity,HourlyPrecipIn,Conditions,Clouds,dailyrainin,SolarRadiationWatts/m^2,SoftwareType,DateUTC
2013-09-11 00:02:00,55.0,41.0,-100.00,ENE,60,2.0,6.0,58,0.00,,,0.00,0.000000,,2013-09-11 06:02:00,
2013-09-11 00:12:00,55.0,41.0,-100.00,ENE,60,2.0,6.0,58,0.00,,,0.00,0.000000,,2013-09-11 06:12:00,
2013-09-11 00:42:00,51.0,40.0,-100.00,ESE,107,4.0,6.0,65,0.00,,,0.00,0.000000,,2013-09-11 06:42:00,
2013-09-11 00:52:00,51.0,40.0,-100.00,ESE,107,4.0,6.0,65,0.00,,,0.00,0.000000,,2013-09-11 06:52:00,
2013-09-11 01:01:00,51.0,40.0,-100.00,ESE,107,4.0,6.0,65,0.00,,,0.00,0.000000,,2013-09-11 07:01:00,
2013-09-11 01:11:00,51.0,40.0,-100.00,ESE,107,4.0,6.0,65,0.00,,,0.00,0.000000,,2013-09-11 07:11:00,
2013-09-11 01:42:00,49.0,40.0,-100.00,ESE,108,2.0,4.0,71,0.00,,,0.00,0.000000,,2013-09-11 07:42:00,
2013-09-11 01:52:00,49.0,40.0,-100.00,ESE,108,2.0,4.0,71,0.00,,,0.00,0.000000,,2013-09-11 07:52:00,
2013-09-11 02:02:00,49.0,40.0,-100.00,ESE,108,2.0,4.0,71,0.00,,,0.00,0.000000,,2013-09-11 08:02:00,
2013-09-11 02:11:00,49.0,40.0,-100.00,ESE,108,2.0,4.0,71,0.00,,,0.00,0.000000,,2013-09-11 08:11:00,
2013-09-11 02:42:00,47.0,38.0,-100.00,SE,128,3.0,5.0,72,0.00,,,0.00,0.000000,,2013-09-11 08:42:00,
2013-09-11 02:52:00,47.0,38.0,-100.00,SE,128,3.0,5.0,72,0.00,,,0.00,0.000000,,2013-09-11 08:52:00,
2013-09-11 03:01:00,47.0,38.0,-100.00,SE,128,3.0,5.0,72,0.00,,,0.00,0.000000,,2013-09-11 09:01:00,
2013-09-11 03:11:00,47.0,38.0,-100.00,SE,128,3.0,5.0,72,0.00,,,0.00,0.000000,,2013-09-11 09:11:00,
2013-09-11 04:12:00,44.0,37.0,-100.00,NNE,24,2.0,5.0,76,0.00,,,0.00,0.000000,,2013-09-11 10:12:00,
2013-09-11 04:43:00,43.0,38.0,-100.00,NNE,30,0.0,4.0,84,0.00,,,0.00,0.000000,,2013-09-11 10:43:00,
2013-09-11 05:12:00,43.0,38.0,-100.00,NNE,30,0.0,4.0,84,0.00,,,0.00,0.000000,,2013-09-11 11:12:00,
2013-09-11 05:42:00,43.0,39.0,-100.00,ENE,69,0.0,4.0,86,0.00,,,-99.99,0.000000,,2013-09-11 11:42:00,
2013-09-11 05:52:00,43.0,39.0,-100.00,ENE,69,0.0,4.0,86,0.00,,,-99.99,0.000000,,2013-09-11 11:52:00,
2013-09-11 06:01:00,43.0,39.0,-100.00,ENE,69,0.0,4.0,86,0.00,,,-99.99,0.000000,,2013-09-11 12:01:00,
2013-09-11 06:11:00,43.0,39.0,-100.00,ENE,69,0.0,4.0,86,0.00,,,-99.99,0.000000,,2013-09-11 12:11:00,
2013-09-11 06:42:00,43.0,38.0,-100.00,East,99,3.0,6.0,82,0.00,,,-99.99,0.000000,,2013-09-11 12:42:00,
2013-09-11 06:52:00,43.0,38.0,-100.00,East,99,3.0,6.0,82,0.00,,,-99.99,0.000000,,2013-09-11 12:52:00,
2013-09-11 07:02:00,43.0,38.0,-100.00,East,99,3.0,6.0,82,0.00,,,-99.99,0.000000,,2013-09-11 13:02:00,
2013-09-11 07:12:00,43.0,38.0,-100.00,East,99,3.0,6.0,82,0.00,,,-99.99,0.000000,,2013-09-11 13:12:00,
2013-09-11 07:42:00,40.0,38.0,-100.00,SE,140,2.0,5.0,93,0.00,,,0.00,1.000000,,2013-09-11 13:42:00,
2013-09-11 07:52:00,40.0,38.0,-100.00,SE,140,2.0,5.0,93,0.00,,,0.00,1.000000,,2013-09-11 13:52:00,
2013-09-11 08:02:00,40.0,38.0,-100.00,SE,140,2.0,5.0,93,0.00,,,0.00,1.000000,,2013-09-11 14:02:00,
2013-09-11 08:11:00,40.0,38.0,-100.00,SE,140,2.0,5.0,93,0.00,,,0.00,1.000000,,2013-09-11 14:11:00,
2013-09-11 08:42:00,41.0,39.0,-100.00,NNE,30,1.0,4.0,91,0.00,,,0.00,16.000000,,2013-09-11 14:42:00,
2013-09-11 08:52:00,41.0,39.0,-100.00,NNE,30,1.0,4.0,91,0.00,,,0.00,16.000000,,2013-09-11 14:52:00,
2013-09-11 09:02:00,41.0,39.0,-100.00,NNE,30,1.0,4.0,91,0.00,,,0.00,16.000000,,2013-09-11 15:02:00,
2013-09-11 09:11:00,41.0,39.0,-100.00,NNE,30,1.0,4.0,91,0.00,,,0.00,16.000000,,2013-09-11 15:11:00,
2013-09-11 09:43:00,49.0,44.0,-100.00,NW,316,2.0,4.0,84,-99.99,,,0.00,293.000000,,2013-09-11 15:43:00,
2013-09-11 09:54:00,49.0,44.0,-100.00,NW,316,2.0,4.0,84,-99.99,,,0.00,293.000000,,2013-09-11 15:54:00,
2013-09-11 10:03:00,49.0,44.0,-100.00,NW,316,2.0,4.0,84,-99.99,,,0.00,293.000000,,2013-09-11 16:03:00,
2013-09-11 10:13:00,49.0,44.0,-100.00,NW,316,2.0,4.0,84,-99.99,,,0.00,293.000000,,2013-09-11 16:13:00,
2013-09-11 10:43:00,57.0,45.0,-100.00,WSW,239,3.0,4.0,64,-99.99,,,0.00,490.000000,,2013-09-11 16:43:00,
2013-09-11 10:53:00,57.0,45.0,-100.00,WSW,239,3.0,4.0,64,-99.99,,,0.00,490.000000,,2013-09-11 16:53:00,
2013-09-11 11:03:00,57.0,45.0,-100.00,WSW,239,3.0,4.0,64,-99.99,,,0.00,490.000000,,2013-09-11 17:03:00,
2013-09-11 11:12:00,57.0,45.0,-100.00,WSW,239,3.0,4.0,64,-99.99,,,0.00,490.000000,,2013-09-11 17:12:00,
2013-09-11 11:43:00,64.0,46.0,-100.00,WSW,246,3.0,5.0,52,0.00,,,0.00,666.000000,,2013-09-11 17:43:00,
2013-09-11 11:52:00,64.0,46.0,-100.00,WSW,246,3.0,5.0,52,0.00,,,0.00,666.000000,,2013-09-11 17:52:00,
2013-09-11 12:02:00,64.0,46.0,-100.00,WSW,246,3.0,5.0,52,0.00,,,0.00,666.000000,,2013-09-11 18:02:00,
2013-09-11 12:12:00,64.0,46.0,-100.00,WSW,246,3.0,5.0,52,0.00,,,0.00,666.000000,,2013-09-11 18:12:00,
2013-09-11 12:42:00,71.0,47.0,-100.00,South,189,3.0,7.0,43,0.00,,,0.00,796.000000,,2013-09-11 18:42:00,
2013-09-11 12:52:00,71.0,47.0,-100.00,South,189,3.0,7.0,43,0.00,,,0.00,796.000000,,2013-09-11 18:52:00,
2013-09-11 13:01:00,71.0,47.0,-100.00,South,189,3.0,7.0,43,0.00,,,0.00,796.000000,,2013-09-11 19:01:00,
2013-09-11 13:11:00,71.0,47.0,-100.00,South,189,3.0,7.0,43,0.00,,,0.00,796.000000,,2013-09-11 19:11:00,
2013-09-11 13:42:00,77.0,44.0,-100.00,West,269,6.0,12.0,31,0.00,,,0.00,864.000000,,2013-09-11 19:42:00,
2013-09-11 13:53:00,77.0,44.0,-100.00,West,269,6.0,12.0,31,0.00,,,0.00,864.000000,,2013-09-11 19:53:00,
2013-09-11 14:02:00,77.0,44.0,-100.00,West,269,6.0,12.0,31,0.00,,,0.00,864.000000,,2013-09-11 20:02:00,
2013-09-11 14:12:00,77.0,44.0,-100.00,West,269,6.0,12.0,31,0.00,,,0.00,864.000000,,2013-09-11 20:12:00,
2013-09-11 14:42:00,79.0,40.0,-100.00,WSW,247,5.0,11.0,25,0.00,,,0.00,508.000000,,2013-09-11 20:42:00,
2013-09-11 14:52:00,79.0,40.0,-100.00,WSW,247,5.0,11.0,25,0.00,,,0.00,508.000000,,2013-09-11 20:52:00,
2013-09-11 15:02:00,79.0,40.0,-100.00,WSW,247,5.0,11.0,25,0.00,,,0.00,508.000000,,2013-09-11 21:02:00,
2013-09-11 15:11:00,79.0,40.0,-100.00,WSW,247,5.0,11.0,25,0.00,,,0.00,508.000000,,2013-09-11 21:11:00,
2013-09-11 15:44:00,81.0,35.0,-100.00,NE,56,8.0,20.0,19,0.00,,,0.00,644.000000,,2013-09-11 21:44:00,
2013-09-11 15:54:00,81.0,35.0,-100.00,NE,56,8.0,20.0,19,0.00,,,0.00,644.000000,,2013-09-11 21:54:00,
2013-09-11 16:04:00,81.0,35.0,-100.00,NE,56,8.0,20.0,19,0.00,,,0.00,644.000000,,2013-09-11 22:04:00,
2013-09-11 16:13:00,81.0,35.0,-100.00,NE,56,8.0,20.0,19,0.00,,,0.00,644.000000,,2013-09-11 22:13:00,
2013-09-11 16:43:00,82.0,37.0,-100.00,NE,39,5.0,15.0,20,0.00,,,0.00,524.000000,,2013-09-11 22:43:00,
2013-09-11 16:54:00,82.0,37.0,-100.00,NE,39,5.0,15.0,20,0.00,,,0.00,524.000000,,2013-09-11 22:54:00,
2013-09-11 17:03:00,82.0,37.0,-100.00,NE,39,5.0,15.0,20,0.00,,,0.00,524.000000,,2013-09-11 23:03:00,
2013-09-11 17:12:00,82.0,37.0,-100.00,NE,39,5.0,15.0,20,0.00,,,0.00,524.000000,,2013-09-11 23:12:00,
2013-09-11 17:42:00,82.0,38.0,-100.00,East,87,7.0,15.0,21,0.00,,,0.00,519.000000,,2013-09-11 23:42:00,
2013-09-11 17:53:00,82.0,38.0,-100.00,East,87,7.0,15.0,21,0.00,,,0.00,519.000000,,2013-09-11 23:53:00,
2013-09-11 18:01:00,82.0,38.0,-100.00,East,87,7.0,15.0,21,0.00,,,0.00,519.000000,,2013-09-12 00:01:00,
2013-09-11 18:11:00,82.0,38.0,-100.00,East,87,7.0,15.0,21,0.00,,,0.00,519.000000,,2013-09-12 00:11:00,
2013-09-11 18:42:00,80.0,40.0,-100.00,NNE,26,7.0,15.0,24,0.00,,,0.00,364.000000,,2013-09-12 00:42:00,
2013-09-11 18:52:00,80.0,40.0,-100.00,NNE,26,7.0,15.0,24,0.00,,,0.00,364.000000,,2013-09-12 00:52:00,
2013-09-11 19:01:00,80.0,40.0,-100.00,NNE,26,7.0,15.0,24,0.00,,,0.00,364.000000,,2013-09-12 01:01:00,
2013-09-11 19:11:00,80.0,40.0,-100.00,NNE,26,7.0,15.0,24,0.00,,,0.00,364.000000,,2013-09-12 01:11:00,
2013-09-11 19:42:00,76.0,40.0,-100.00,NNE,28,6.0,15.0,27,0.00,,,0.00,142.000000,,2013-09-12 01:42:00,
2013-09-11 19:52:00,76.0,40.0,-100.00,NNE,28,6.0,15.0,27,0.00,,,0.00,142.000000,,2013-09-12 01:52:00,
2013-09-11 20:03:00,76.0,40.0,-100.00,NNE,28,6.0,15.0,27,0.00,,,0.00,142.000000,,2013-09-12 02:03:00,
2013-09-11 20:12:00,76.0,40.0,-100.00,NNE,28,6.0,15.0,27,0.00,,,0.00,142.000000,,2013-09-12 02:12:00,
2013-09-11 20:52:00,70.0,42.0,-100.00,North,11,3.0,11.0,36,0.00,,,0.00,9.000000,,2013-09-12 02:52:00,
2013-09-11 21:02:00,70.0,42.0,-100.00,North,11,3.0,11.0,36,0.00,,,0.00,9.000000,,2013-09-12 03:02:00,
2013-09-11 21:11:00,70.0,42.0,-100.00,North,11,3.0,11.0,36,0.00,,,0.00,9.000000,,2013-09-12 03:11:00,
2013-09-11 21:45:00,65.0,43.0,-100.00,ENE,65,4.0,8.0,45,0.00,,,0.00,0.000000,,2013-09-12 03:45:00,
2013-09-11 21:55:00,65.0,43.0,-100.00,ENE,65,4.0,8.0,45,0.00,,,0.00,0.000000,,2013-09-12 03:55:00,
2013-09-11 22:05:00,65.0,43.0,-100.00,ENE,65,4.0,8.0,45,0.00,,,0.00,0.000000,,2013-09-12 04:05:00,
2013-09-11 22:14:00,65.0,43.0,-100.00,ENE,65,4.0,8.0,45,0.00,,,0.00,0.000000,,2013-09-12 04:14:00,
2013-09-11 22:44:00,61.0,44.0,-100.00,SSE,155,4.0,7.0,53,0.00,,,0.00,0.000000,,2013-09-12 04:44:00,
2013-09-11 22:54:00,61.0,44.0,-100.00,SSE,155,4.0,7.0,53,0.00,,,0.00,0.000000,,2013-09-12 04:54:00,
2013-09-11 23:03:00,61.0,44.0,-100.00,SSE,155,4.0,7.0,53,0.00,,,0.00,0.000000,,2013-09-12 05:03:00,
2013-09-11 23:13:00,61.0,44.0,-100.00,SSE,155,4.0,7.0,53,0.00,,,0.00,0.000000,,2013-09-12 05:13:00,
2013-09-11 23:43:00,59.0,42.0,-100.00,SSE,157,3.0,8.0,54,0.00,,,0.00,0.000000,,2013-09-12 05:43:00,
2013-09-11 23:53:00,59.0,42.0,-100.00,SSE,157,3.0,8.0,54,0.00,,,0.00,0.000000,,2013-09-12 05:53:00,